Weather History for Hurlburt Field, FL

Change the Weather History Date:

Tuesday, February 14, 2012

  Actual Average Record
Temperature  
Mean Temperature 62 °F -  
Max Temperature 70 °F 62 °F 77 °F (2000)
Min Temperature 51 °F 44 °F 27 °F (2008)
Degree Days  
Heating Degree Days 4    
Growing Degree Days 12 (Base 50)    
Moisture  
Dew Point 59 °F    
Average Humidity 90    
Maximum Humidity 100    
Minimum Humidity 50    
Precipitation  
Precipitation 0.37 in - - ()
Sea Level Pressure  
Sea Level Pressure 29.99 in    
Wind  
Wind Speed 11 mph (SW)    
Max Wind Speed 20 mph    
Max Gust Speed 26 mph    
Visibility 7 miles    
Events Rain    
Averages and records for this station are not official NWS values.
T = Trace of Precipitation, MM = Missing Value Source: NWS Daily Summary

Daily Weather History Graph

Daily Weather History Graph

Search for Another Location

Airport:

Trip Planner

Search our weather history database for the weather conditions in past years. The results will help you decide how hot, cold, wet, or windy it might be!

Date:

Astronomy

Feb. 14, 2012 Rise Set
Actual Time 6:28 AM CST 5:33 PM CST
Civil Twilight 6:03 AM CST 5:58 PM CST
Nautical Twilight 5:35 AM CST 6:26 PM CST
Astronomical Twilight 5:07 AM CST 6:54 PM CST
Moon 12:03 AM CST (2/14) 10:49 AM CST (2/14)
Length of Visible Light 11h 54m
Length of Day
11h 05m
Waning Gibbous, 50% of the Moon is Illuminated
Feb 14
Waning Gibbous
Feb 21
New
Feb 29
First Quarter
Mar 8
Full
Mar 14
Last Quarter

Hourly Weather History & Observations

Time (CST) Temp. Dew Point Humidity Pressure Visibility Wind Dir Wind Speed Gust Speed Precip Events Conditions
12:35 AM 60.8 °F 51.8 °F 72% 30.01 in 10.0 mi SSE 17.3 mph 26.5 mph N/A   Overcast
12:36 AM 60.8 °F 51.8 °F 72% 30.01 in 10.0 mi SSE 19.6 mph 26.5 mph N/A   Overcast
12:55 AM 60.3 °F 53.1 °F 77% 29.99 in 10.0 mi SSE 19.6 mph 25.3 mph N/A   Overcast
1:55 AM 61.2 °F 54.1 °F 78% 29.98 in 10.0 mi SSE 18.4 mph - N/A   Overcast
2:55 AM 62.1 °F 55.4 °F 79% 29.97 in 10.0 mi SSE 18.4 mph - N/A   Overcast
3:11 AM 62.6 °F 55.4 °F 77% 29.96 in 10.0 mi South 18.4 mph - N/A Rain Light Rain
3:22 AM 62.6 °F 57.2 °F 82% 29.96 in 10.0 mi South 17.3 mph - N/A   Overcast
3:35 AM 62.6 °F 57.2 °F 82% 29.95 in 10.0 mi South 17.3 mph - N/A   Light Drizzle
3:55 AM 61.3 °F 57.7 °F 88% 29.94 in 10.0 mi South 16.1 mph - 0.00 in   Light Drizzle
3:59 AM 60.8 °F 57.2 °F 88% 29.94 in 10.0 mi South 19.6 mph - N/A   Overcast
4:14 AM 62.6 °F 57.2 °F 82% 29.94 in 10.0 mi South 18.4 mph - N/A   Light Drizzle
4:37 AM 62.6 °F 57.2 °F 82% 29.94 in 10.0 mi South 15.0 mph - N/A Rain Light Rain
4:49 AM 62.6 °F 59.0 °F 88% 29.93 in 10.0 mi South 18.4 mph - N/A Rain Light Rain
4:55 AM 61.9 °F 58.3 °F 88% 29.93 in 10.0 mi South 17.3 mph - 0.01 in Rain Light Rain
5:14 AM 62.6 °F 59.0 °F 88% 29.94 in 10.0 mi South 13.8 mph - N/A Rain Light Rain
5:27 AM 62.6 °F 59.0 °F 88% 29.94 in 10.0 mi South 15.0 mph - N/A Rain Light Rain
5:55 AM 62.6 °F 59.4 °F 89% 29.94 in 10.0 mi South 15.0 mph - 0.01 in Rain Light Rain
6:26 AM 62.6 °F 60.8 °F 94% 29.95 in 9.0 mi South 12.7 mph - N/A Rain Light Rain
6:47 AM 62.6 °F 60.8 °F 94% 29.96 in 3.0 mi South 12.7 mph - N/A Rain Light Rain
6:48 AM 62.6 °F 60.8 °F 94% 29.96 in 3.0 mi South 12.7 mph - N/A Rain Light Rain
6:53 AM 62.6 °F 60.8 °F 94% 29.96 in 4.0 mi South 13.8 mph - N/A Rain Light Rain
6:55 AM 62.8 °F 61.3 °F 95% 29.96 in 4.0 mi South 12.7 mph - 0.08 in Rain Light Rain
7:07 AM 62.6 °F 60.8 °F 94% 29.97 in 2.5 mi SSW 8.1 mph - N/A Rain Light Rain
7:19 AM 62.6 °F 60.8 °F 94% 29.98 in 3.0 mi SSW 6.9 mph - N/A Rain Light Rain
7:43 AM 62.6 °F 62.6 °F 100% 29.98 in 2.5 mi Variable 4.6 mph - N/A Rain Light Rain
7:55 AM 63.3 °F 62.2 °F 96% 29.99 in 2.0 mi West 3.5 mph - 0.06 in Rain Light Rain
7:59 AM 62.6 °F 62.6 °F 100% 29.99 in 1.8 mi WNW 4.6 mph - N/A Rain Light Rain
8:00 AM 62.6 °F 62.6 °F 100% 29.99 in 1.5 mi WNW 4.6 mph - N/A Rain Light Rain
8:01 AM 62.6 °F 62.6 °F 100% 29.99 in 1.2 mi WNW 5.8 mph - N/A Rain Light Rain
8:02 AM 62.6 °F 62.6 °F 100% 29.99 in 1.0 mi WNW 5.8 mph - N/A Rain Light Rain
8:03 AM 62.6 °F 62.6 °F 100% 29.99 in 0.8 mi WNW 6.9 mph - N/A Rain Light Rain
8:04 AM 62.6 °F 62.6 °F 100% 29.99 in 1.8 mi West 5.8 mph - N/A Rain Rain
8:05 AM 62.6 °F 62.6 °F 100% 29.99 in 1.5 mi WNW 5.8 mph - N/A Rain Heavy Rain
8:06 AM 62.6 °F 62.6 °F 100% 29.99 in 1.2 mi WNW 5.8 mph - N/A Rain Heavy Rain
8:09 AM 62.6 °F 62.6 °F 100% 29.99 in 1.0 mi WNW 3.5 mph - N/A Rain Heavy Rain
8:18 AM 62.6 °F 62.6 °F 100% 29.99 in 1.2 mi WSW 3.5 mph - N/A Rain Light Rain
8:19 AM 62.6 °F 62.6 °F 100% 29.99 in 1.5 mi WSW 3.5 mph - N/A Rain Light Rain
8:20 AM 62.6 °F 62.6 °F 100% 29.99 in 1.8 mi WSW 4.6 mph - N/A Rain Light Rain
8:21 AM 62.6 °F 62.6 °F 100% 29.99 in 2.0 mi WSW 5.8 mph - N/A Rain Light Rain
8:23 AM 62.6 °F 62.6 °F 100% 29.99 in 3.0 mi WSW 6.9 mph - N/A Rain Light Rain
8:32 AM 62.6 °F 62.6 °F 100% 29.99 in 2.5 mi WSW 8.1 mph - N/A Rain Light Rain
8:39 AM 62.6 °F 62.6 °F 100% 29.99 in 2.5 mi WSW 5.8 mph - N/A Rain Light Rain
8:42 AM 62.6 °F 62.6 °F 100% 29.99 in 2.5 mi WSW 6.9 mph - N/A Rain Light Rain
8:43 AM 62.6 °F 62.6 °F 100% 29.99 in 3.0 mi WSW 6.9 mph - N/A Rain Light Rain
8:47 AM 62.6 °F 62.6 °F 100% 29.99 in 2.5 mi WSW 6.9 mph - N/A Rain Light Rain
8:55 AM 63.3 °F 62.8 °F 98% 29.99 in 2.0 mi SW 5.8 mph - 0.21 in Rain Light Rain
9:00 AM 62.6 °F 62.6 °F 100% 29.98 in 3.0 mi WSW 4.6 mph - N/A Rain Light Rain
9:03 AM 62.6 °F 62.6 °F 100% 29.99 in 4.0 mi West 4.6 mph - N/A Rain Light Rain
9:05 AM 62.6 °F 62.6 °F 100% 29.99 in 2.0 mi West 4.6 mph - N/A Rain Light Rain
9:46 AM 64.4 °F 62.6 °F 94% 29.99 in 5.0 mi SW 10.4 mph - N/A   Overcast
9:59 AM 64.4 °F 64.4 °F 100% 29.98 in 10.0 mi SW 6.9 mph - N/A   Overcast
10:57 AM 64.4 °F 64.4 °F 100% 29.97 in 5.0 mi SSW 5.8 mph - N/A   Overcast
11:37 AM 64.4 °F 62.6 °F 94% 29.96 in 5.0 mi SE 4.6 mph - N/A   Overcast
11:56 AM 62.6 °F 60.8 °F 94% 29.96 in 5.0 mi ENE 4.6 mph - N/A   Overcast
12:46 PM 62.6 °F 60.8 °F 94% 29.94 in 3.0 mi ENE 3.5 mph - N/A   Overcast
12:57 PM 62.6 °F 62.6 °F 100% 29.94 in 5.0 mi East 3.5 mph - N/A   Overcast
1:13 PM 69.8 °F 51.8 °F 53% 30.09 in 10.0 mi North 9.2 mph - N/A   Light Drizzle
1:14 PM 69.8 °F 51.8 °F 53% 30.09 in 10.0 mi North 9.2 mph - N/A   Mostly Cloudy
1:15 PM 69.8 °F 51.8 °F 53% 30.09 in 10.0 mi North 8.1 mph - N/A   Light Drizzle
1:55 PM 70.0 °F 50.7 °F 50% 30.09 in 10.0 mi Variable 4.6 mph - 0.00 in   Clear
2:28 PM 62.6 °F 60.8 °F 94% 29.94 in 10.0 mi NNE 5.8 mph - N/A   Mostly Cloudy
2:31 PM 62.6 °F 60.8 °F 94% 29.95 in 10.0 mi NNE 5.8 mph - N/A   Light Drizzle
2:42 PM 64.4 °F 60.8 °F 88% 29.95 in 10.0 mi Variable 3.5 mph - N/A   Partly Cloudy
2:43 PM 64.4 °F 60.8 °F 88% 29.95 in 10.0 mi Variable 4.6 mph - N/A Rain Light Rain
2:44 PM 64.4 °F 60.8 °F 88% 29.95 in 10.0 mi North 3.5 mph - N/A   Partly Cloudy
2:50 PM 64.4 °F 60.8 °F 88% 29.96 in 10.0 mi Variable 3.5 mph - N/A Rain Light Rain
2:55 PM 64.8 °F 60.3 °F 85% 29.95 in 10.0 mi Variable 4.6 mph - 0.00 in Rain Light Rain
3:06 PM 66.2 °F 60.8 °F 83% 29.95 in 10.0 mi NNE 5.8 mph - N/A   Clear
3:10 PM 66.2 °F 60.8 °F 83% 29.95 in 10.0 mi North 3.5 mph - N/A   Light Drizzle
3:23 PM 66.2 °F 60.8 °F 83% 29.95 in 10.0 mi North 6.9 mph - N/A   Clear
3:54 PM 64.4 °F 60.8 °F 88% 29.96 in 10.0 mi NE 8.1 mph - N/A   Mostly Cloudy
3:55 PM 64.0 °F 60.1 °F 87% 29.96 in 10.0 mi NE 9.2 mph - 0.00 in   Mostly Cloudy
4:03 PM 64.4 °F 60.8 °F 88% 29.97 in 10.0 mi NE 9.2 mph - N/A   Scattered Clouds
4:11 PM 64.4 °F 59.0 °F 83% 29.97 in 10.0 mi NNE 6.9 mph - N/A   Mostly Cloudy
4:16 PM 64.4 °F 59.0 °F 83% 29.98 in 10.0 mi Variable 5.8 mph - N/A   Mostly Cloudy
4:42 PM 62.6 °F 59.0 °F 88% 29.99 in 10.0 mi NNE 8.1 mph - N/A   Overcast
4:55 PM 61.3 °F 58.1 °F 89% 30.00 in 10.0 mi NNE 8.1 mph - N/A   Overcast
5:27 PM 59.0 °F 57.2 °F 94% 30.01 in 10.0 mi NNE 6.9 mph - N/A   Mostly Cloudy
5:42 PM 59.0 °F 57.2 °F 94% 30.01 in 10.0 mi NNE 6.9 mph - N/A   Mostly Cloudy
5:55 PM 58.8 °F 57.2 °F 94% 30.02 in 10.0 mi NNE 6.9 mph - N/A   Overcast
6:55 PM 57.6 °F 55.9 °F 94% 30.04 in 10.0 mi NNE 5.8 mph - N/A   Overcast
7:02 PM 57.2 °F 55.4 °F 94% 30.04 in 10.0 mi NE 5.8 mph - N/A   Overcast
7:55 PM 57.4 °F 55.2 °F 92% 30.07 in 10.0 mi NNE 6.9 mph - N/A   Overcast
8:50 PM 55.4 °F 53.6 °F 94% 30.08 in 10.0 mi NE 5.8 mph - N/A   Scattered Clouds
8:55 PM 55.6 °F 53.2 °F 92% 30.08 in 10.0 mi NE 5.8 mph - N/A   Scattered Clouds
9:55 PM 54.0 °F 52.3 °F 94% 30.09 in 10.0 mi NE 4.6 mph - N/A   Clear
10:55 PM 53.4 °F 51.8 °F 94% 30.09 in 10.0 mi NE 5.8 mph - N/A   Clear
11:55 PM 51.8 °F 50.4 °F 95% 30.09 in 10.0 mi NNE 6.9 mph - N/A   Clear